World > North America > United States > Texas

Plano, Texas Regional Weather

Lat: 33.05N, Lon: 96.75W
Wx Zone: TXZ104
Warning FLW WEATHER ALERT - (More Info. Click Here) Warning
Feedback

Plano, TX Regional Weather

Expires:201908241900;;144540
ASUS44 KFWD 241803
RWRTX 
NORTH TEXAS HOURLY WEATHER ROUNDUP
NATIONAL WEATHER SERVICE FORT WORTH TX
100 PM CDT SAT AUG 24 2019

NOTE: "FAIR" INDICATES FEW OR NO CLOUDS BELOW 12,000 FEET WITH NO
SIGNIFICANT WEATHER AND/OR OBSTRUCTIONS TO VISIBILITY.


TXZ091>094-102>105-117-120-121-131>134-241900-
NORTH CENTRAL TEXAS
  
CITY           SKY/WX    TMP DP  RH WIND       PRES   REMARKS
SHRMAN/DENISON PTSUNNY   86  75  70 CALM      29.97F HX  95           
GAINESVILLE    FAIR      85  73  67 CALM      29.98S HX  91           
6HR MIN TEMP:  73; 6HR MAX TEMP:  85;                                

BOWIE          FAIR      82  72  72 CALM      29.98F                  
6HR MIN TEMP:  71; 6HR MAX TEMP:  82;                                

BRIDGEPORT     FAIR      87  70  56 E6        29.98S HX  92           
6HR MIN TEMP:  72; 6HR MAX TEMP:  87;                                

DECATUR        FAIR      86  70  59 S3        29.97F HX  91           
6HR MIN TEMP:  72; 6HR MAX TEMP:  86;                                

DENTON         FAIR      89  72  56 SE7       29.95F HX  96           
6HR MIN TEMP:  74; 6HR MAX TEMP:  89;                                

MCKINNEY       FAIR      89  72  56 SE7       29.94F HX  96           
6HR MIN TEMP:  76; 6HR MAX TEMP:  89;                                

BONHAM         CLOUDY    87  73  64 SE9       29.95F HX  94           
6HR MIN TEMP:  74; 6HR MAX TEMP:  89;                                

GREENVILLE     PTSUNNY   91  70  49 E5        29.95F HX  97           
ROCKWALL       PTSUNNY   91  74  56 SE9       29.95F HX 100           
6HR MIN TEMP:  75; 6HR MAX TEMP:  91;                                

TERRELL        FAIR      91  71  51 E5        29.95F HX  97           
6HR MIN TEMP:  76; 6HR MAX TEMP:  91;                                

WAXAHACHIE     PTSUNNY   90  72  54 NE6       29.96F HX  96           
6HR MIN TEMP:  75; 6HR MAX TEMP:  91;                                

CLEBURNE       FAIR      90  73  58 NE6       29.96F HX  98           
GRANBURY       FAIR      87  71  58 MISG      29.97F HX  93           
6HR MIN TEMP:  76; 6HR MAX TEMP:  88;                                

$$


SKY/WX - Weather  TMP - Temperature  DP - Dew Point  RH - Relative Humidity
WIND - Wind Direction/Speed PRES - Barometric Pressure VSB - Visibility
WCI - Wind Chill Index E13G22 Wind - East Wind 13 mph/Gusts of 22 mph